• In Netherlands
  • List of Countries
  • For 7 days
  • Water Temperature
  • Satellite Maps
  • Weather Map
  • Weather Widgets
  • user-avatar
    Login

    Hourly Weather Kapan

    Today, 19 September, Tuesday

    Time Temperature Precipitation Wind Pressure Humidity
    00:00 +22°C° 0 mm 1 mps 687 mmHg 27%
    01:00 +21°C° 0 mm 1 mps 687 mmHg 28%
    02:00 +21°C° 0 mm 1 mps 687 mmHg 28%
    03:00 +21°C° 0 mm 1 mps 687 mmHg 26%
    04:00 +21°C° 0 mm 1 mps 687 mmHg 26%
    05:00 +21°C° 0 mm 1 mps 687 mmHg 27%
    06:00 +21°C° 0 mm 1 mps 687 mmHg 27%
    07:00 +23°C° 0 mm 1 mps 687 mmHg 24%
    08:00 +26°C° 0 mm 1 mps 688 mmHg 21%
    09:00 +28°C° 0 mm 2 mps 688 mmHg 16%
    10:00 +29°C° 0 mm 2 mps 688 mmHg 15%
    11:00 +31°C° 0 mm 2 mps 688 mmHg 14%
    12:00 +33°C° 0 mm 3 mps 688 mmHg 13%
    13:00 +33°C° 0 mm 3 mps 688 mmHg 13%
    14:00 +33°C° 0 mm 3 mps 687 mmHg 14%
    15:00 +33°C° 0 mm 3 mps 687 mmHg 14%
    16:00 +30°C° 0 mm 3 mps 687 mmHg 17%
    17:00 +28°C° 0 mm 2 mps 686 mmHg 21%
    18:00 +26°C° 0 mm 2 mps 686 mmHg 25%
    19:00 +25°C° 0 mm 2 mps 686 mmHg 28%
    20:00 +24°C° 0 mm 1 mps 686 mmHg 30%
    21:00 +23°C° 0 mm 1 mps 686 mmHg 33%
    22:00 +23°C° 0 mm 1 mps 686 mmHg 34%
    23:00 +22°C° 0 mm 1 mps 686 mmHg 35%

    Tomorrow, 20 September, Wednesday

    Time Temperature Precipitation Wind Pressure Humidity
    00:00 +21°C° 0 mm 2 mps 686 mmHg 35%
    01:00 +22°C° 0 mm 1 mps 686 mmHg 36%
    02:00 +21°C° 0 mm 1 mps 686 mmHg 36%
    03:00 +21°C° 0 mm 1 mps 686 mmHg 36%
    04:00 +21°C° 0 mm 1 mps 686 mmHg 37%
    05:00 +21°C° 0 mm 1 mps 686 mmHg 37%
    06:00 +20°C° 0 mm 1 mps 686 mmHg 37%
    07:00 +23°C° 0 mm 1 mps 687 mmHg 32%
    08:00 +25°C° 0 mm 1 mps 687 mmHg 27%
    09:00 +28°C° 0 mm 1 mps 688 mmHg 22%
    10:00 +29°C° 0 mm 2 mps 688 mmHg 21%
    11:00 +30°C° 0 mm 2 mps 688 mmHg 20%
    12:00 +31°C° 0 mm 3 mps 688 mmHg 18%
    13:00 +33°C° 0 mm 3 mps 687 mmHg 19%
    14:00 +33°C° 0 mm 3 mps 687 mmHg 19%
    15:00 +33°C° 0 mm 3 mps 686 mmHg 20%
    16:00 +30°C° 0 mm 2 mps 686 mmHg 25%
    17:00 +28°C° 0 mm 2 mps 686 mmHg 31%
    18:00 +26°C° 0 mm 2 mps 686 mmHg 36%
    19:00 +25°C° 0 mm 1 mps 686 mmHg 41%
    20:00 +24°C° 0 mm 1 mps 686 mmHg 45%
    21:00 +23°C° 0 mm 1 mps 686 mmHg 49%
    22:00 +23°C° 0 mm 1 mps 686 mmHg 49%
    23:00 +22°C° 0 mm 1 mps 686 mmHg 50%

    Day after tomorrow, 21 September, Thursday

    Time Temperature Precipitation Wind Pressure Humidity
    00:00 +22°C° 0 mm 1 mps 686 mmHg 50%
    01:00 +22°C° 0 mm 1 mps 686 mmHg 49%
    02:00 +22°C° 0 mm 1 mps 686 mmHg 48%
    03:00 +21°C° 0 mm 1 mps 686 mmHg 48%
    04:00 +21°C° 0 mm 1 mps 686 mmHg 47%
    05:00 +21°C° 0 mm 1 mps 686 mmHg 46%
    06:00 +21°C° 0 mm 1 mps 686 mmHg 45%
    07:00 +23°C° 0 mm 1 mps 686 mmHg 40%
    08:00 +26°C° 0 mm 1 mps 687 mmHg 34%
    09:00 +28°C° 0 mm 2 mps 687 mmHg 29%
    10:00 +29°C° 0 mm 2 mps 687 mmHg 26%
    11:00 +30°C° 0 mm 2 mps 687 mmHg 24%
    12:00 +33°C° 0 mm 3 mps 687 mmHg 21%
    13:00 +31°C° 0 mm 3 mps 686 mmHg 22%
    14:00 +31°C° 0 mm 3 mps 686 mmHg 22%
    15:00 +31°C° 0 mm 3 mps 685 mmHg 23%
    16:00 +29°C° 0 mm 3 mps 685 mmHg 27%
    17:00 +28°C° 0 mm 2 mps 685 mmHg 32%
    18:00 +26°C° 0 mm 2 mps 685 mmHg 36%
    19:00 +25°C° 0 mm 2 mps 685 mmHg 40%
    20:00 +24°C° 0 mm 1 mps 685 mmHg 43%
    21:00 +23°C° 0 mm 1 mps 685 mmHg 46%
    22:00 +23°C° 0 mm 1 mps 685 mmHg 47%
    23:00 +23°C° 0 mm 1 mps 685 mmHg 47%

    22 September, Friday

    Time Temperature Precipitation Wind Pressure Humidity
    00:00 +22°C° 0 mm 1 mps 685 mmHg 47%
    01:00 +22°C° 0 mm 1 mps 685 mmHg 48%
    02:00 +22°C° 0 mm 1 mps 685 mmHg 49%
    03:00 +21°C° 0 mm 1 mps 685 mmHg 50%
    04:00 +21°C° 0 mm 1 mps 685 mmHg 50%
    05:00 +21°C° 0 mm 1 mps 685 mmHg 51%
    06:00 +20°C° 0 mm 1 mps 685 mmHg 51%
    07:00 +23°C° 0 mm 2 mps 685 mmHg 45%
    08:00 +25°C° 0 mm 2 mps 686 mmHg 39%
    09:00 +27°C° 0 mm 2 mps 686 mmHg 32%
    10:00 +28°C° 0 mm 2 mps 686 mmHg 30%
    11:00 +29°C° 0 mm 3 mps 686 mmHg 27%
    12:00 +31°C° 0 mm 3 mps 685 mmHg 24%
    13:00 +31°C° 0 mm 3 mps 685 mmHg 25%
    14:00 +31°C° 0 mm 3 mps 685 mmHg 25%
    15:00 +31°C° 0 mm 3 mps 684 mmHg 25%
    16:00 +29°C° 0 mm 3 mps 684 mmHg 31%
    17:00 +27°C° 0 mm 3 mps 684 mmHg 36%
    18:00 +25°C° 0 mm 2 mps 684 mmHg 42%
    19:00 +24°C° 0 mm 2 mps 684 mmHg 45%
    20:00 +23°C° 0 mm 2 mps 684 mmHg 49%
    21:00 +21°C° 0 mm 2 mps 685 mmHg 52%
    22:00 +21°C° 0 mm 2 mps 685 mmHg 53%
    23:00 +21°C° 0 mm 2 mps 685 mmHg 53%

    23 September, Saturday

    Time Temperature Precipitation Wind Pressure Humidity
    00:00 +21°C° 0 mm 2 mps 685 mmHg 53%
    01:00 +20°C° 0 mm 2 mps 685 mmHg 53%
    02:00 +20°C° 0 mm 2 mps 685 mmHg 53%
    03:00 +21°C° 0 mm 1 mps 685 mmHg 53%
    04:00 +20°C° 0 mm 1 mps 685 mmHg 52%
    05:00 +20°C° 0 mm 1 mps 686 mmHg 52%
    06:00 +19°C° 0 mm 1 mps 686 mmHg 51%
    07:00 +21°C° 0 mm 2 mps 687 mmHg 45%
    08:00 +24°C° 0 mm 2 mps 687 mmHg 39%
    09:00 +26°C° 0 mm 2 mps 688 mmHg 32%
    10:00 +27°C° 0 mm 2 mps 688 mmHg 30%
    11:00 +28°C° 0 mm 3 mps 688 mmHg 28%
    12:00 +29°C° 0 mm 3 mps 688 mmHg 26%
    13:00 +29°C° 0 mm 3 mps 687 mmHg 27%
    14:00 +29°C° 0 mm 3 mps 687 mmHg 27%
    15:00 +29°C° 0 mm 3 mps 687 mmHg 28%
    16:00 +28°C° 0 mm 3 mps 687 mmHg 33%
    17:00 +26°C° 0 mm 3 mps 686 mmHg 37%
    18:00 +24°C° 0 mm 2 mps 686 mmHg 42%
    19:00 +23°C° 0 mm 2 mps 687 mmHg 46%
    20:00 +21°C° 0 mm 2 mps 687 mmHg 50%
    21:00 +20°C° 0 mm 2 mps 687 mmHg 53%
    22:00 +20°C° 0 mm 2 mps 687 mmHg 54%
    23:00 +20°C° 0 mm 2 mps 687 mmHg 55%

    24 September, Sunday

    Time Temperature Precipitation Wind Pressure Humidity
    00:00 +19°C° 0 mm 2 mps 687 mmHg 56%
    01:00 +19°C° 0 mm 2 mps 687 mmHg 55%
    02:00 +20°C° 0 mm 1 mps 687 mmHg 54%
    03:00 +20°C° 0 mm 1 mps 687 mmHg 53%
    04:00 +19°C° 0 mm 1 mps 687 mmHg 52%
    05:00 +19°C° 0 mm 1 mps 687 mmHg 52%
    06:00 +19°C° 0 mm 1 mps 687 mmHg 51%
    07:00 +20°C° 0 mm 2 mps 688 mmHg 45%
    08:00 +23°C° 0 mm 2 mps 688 mmHg 38%
    09:00 +25°C° 0 mm 2 mps 689 mmHg 32%
    10:00 +27°C° 0 mm 2 mps 689 mmHg 30%
    11:00 +28°C° 0 mm 3 mps 688 mmHg 27%
    12:00 +29°C° 0 mm 3 mps 688 mmHg 25%
    13:00 +29°C° 0 mm 3 mps 688 mmHg 25%
    14:00 +29°C° 0 mm 3 mps 688 mmHg 25%
    15:00 +29°C° 0 mm 3 mps 687 mmHg 25%
    16:00 +28°C° 0 mm 3 mps 687 mmHg 29%
    17:00 +26°C° 0 mm 3 mps 687 mmHg 34%
    18:00 +24°C° 0 mm 2 mps 687 mmHg 38%
    19:00 +23°C° 0 mm 2 mps 687 mmHg 42%
    20:00 +21°C° 0 mm 2 mps 688 mmHg 45%
    21:00 +20°C° 0 mm 2 mps 688 mmHg 48%
    22:00 +20°C° 0 mm 2 mps 688 mmHg 50%
    23:00 +19°C° 0 mm 2 mps 688 mmHg 51%
    Show more